Weather History for Morgantown, WV

Change the Weather History Date:

Sunday, January 13, 2013

  Actual Average Record
Temperature  
Mean Temperature 63 °F 31 °F  
Max Temperature 68 °F 39 °F 72 °F (2005)
Min Temperature 57 °F 24 °F -12 °F (1977)
Degree Days  
Heating Degree Days 2 34  
Month to date heating degree days 342 439  
Since 1 July heating degree days 2200 2423  
Cooling Degree Days 0 0  
Month to date cooling degree days 0 0  
Year to date cooling degree days 0 0  
Growing Degree Days 12 (Base 50)    
Moisture  
Dew Point 53 °F    
Average Humidity 78    
Maximum Humidity 100    
Minimum Humidity 55    
Precipitation  
Precipitation 0.31 in 0.09 in 0.80 in (1975)
Month to date precipitation 0.54 1.17  
Year to date precipitation 0.54 1.17  
Sea Level Pressure  
Sea Level Pressure 29.94 in    
Wind  
Wind Speed 5 mph (SSW)    
Max Wind Speed 15 mph    
Max Gust Speed 23 mph    
Visibility 8 miles    
Events Rain    
T = Trace of Precipitation, MM = Missing Value Source: NWS Daily Summary

Daily Weather History Graph

Daily Weather History Graph

Search for Another Location

Airport:

Trip Planner

Search our weather history database for the weather conditions in past years. The results will help you decide how hot, cold, wet, or windy it might be!

Date:

Astronomy

Jan. 13, 2013 Rise Set
Actual Time 7:39 AM EST 5:18 PM EST
Civil Twilight 7:09 AM EST 5:47 PM EST
Nautical Twilight 6:36 AM EST 6:20 PM EST
Astronomical Twilight 6:04 AM EST 6:53 PM EST
Moon 8:37 AM EST (1/13) 7:54 PM EST (1/13)
Length of Visible Light 10h 38m
Length of Day
9h 38m
Waxing Crescent, 5% of the Moon is Illuminated
Jan 13
Waxing Crescent
Jan 18
First Quarter
Jan 26
Full
Feb 3
Last Quarter
Feb 10
New

Hourly Weather History & Observations

Time (EST) Temp. Dew Point Humidity Pressure Visibility Wind Dir Wind Speed Gust Speed Precip Events Conditions
12:53 AM 64.0 °F 52.0 °F 65% 29.95 in 10.0 mi Variable 5.8 mph - N/A   Clear
1:53 AM 62.1 °F 52.0 °F 70% 29.93 in 10.0 mi SE 6.9 mph - N/A   Clear
2:53 AM 62.1 °F 52.0 °F 70% 29.92 in 10.0 mi Calm Calm - N/A   Clear
3:53 AM 60.1 °F 52.0 °F 75% 29.90 in 10.0 mi Calm Calm - N/A   Clear
4:53 AM 62.1 °F 52.0 °F 70% 29.89 in 10.0 mi South 3.5 mph - N/A   Clear
5:53 AM 63.0 °F 51.1 °F 65% 29.89 in 10.0 mi South 4.6 mph - N/A   Clear
6:53 AM 59.0 °F 51.1 °F 75% 29.94 in 10.0 mi Calm Calm - N/A   Clear
7:53 AM 60.1 °F 50.0 °F 69% 29.96 in 10.0 mi South 3.5 mph - N/A   Clear
8:53 AM 63.0 °F 50.0 °F 63% 29.99 in 10.0 mi SSW 6.9 mph - N/A   Overcast
9:53 AM 64.9 °F 50.0 °F 58% 29.99 in 10.0 mi Variable 6.9 mph - N/A   Overcast
10:53 AM 66.0 °F 50.0 °F 56% 29.99 in 10.0 mi SW 12.7 mph 20.7 mph N/A   Overcast
11:53 AM 66.0 °F 51.1 °F 59% 29.97 in 10.0 mi SW 6.9 mph 16.1 mph N/A   Overcast
12:53 PM 66.9 °F 51.1 °F 57% 29.94 in 10.0 mi SSW 8.1 mph 19.6 mph N/A   Mostly Cloudy
1:53 PM 68.0 °F 52.0 °F 56% 29.92 in 10.0 mi SSW 11.5 mph 20.7 mph N/A   Partly Cloudy
2:53 PM 66.9 °F 51.1 °F 57% 29.92 in 10.0 mi SSW 4.6 mph 17.3 mph N/A   Mostly Cloudy
3:53 PM 66.9 °F 51.1 °F 57% 29.93 in 10.0 mi SW 9.2 mph 18.4 mph N/A   Mostly Cloudy
4:53 PM 66.0 °F 51.1 °F 59% 29.92 in 10.0 mi SSW 12.7 mph - N/A   Clear
5:53 PM 66.0 °F 51.1 °F 59% 29.91 in 10.0 mi South 4.6 mph - N/A   Overcast
6:53 PM 64.9 °F 51.1 °F 61% 29.91 in 10.0 mi South 3.5 mph - N/A   Overcast
7:53 PM 64.9 °F 51.1 °F 61% 29.90 in 10.0 mi Calm Calm - N/A   Overcast
8:53 PM 64.9 °F 52.0 °F 63% 29.89 in 10.0 mi SSW 3.5 mph - N/A   Overcast
9:53 PM 60.1 °F 55.0 °F 83% 29.91 in 6.0 mi West 6.9 mph - 0.03 in Rain Rain
10:15 PM 59.0 °F 57.2 °F 94% 29.93 in 9.0 mi West 4.6 mph - 0.01 in Rain Light Rain
10:30 PM 57.2 °F 57.2 °F 100% 29.93 in 3.0 mi Calm Calm - 0.05 in Rain Light Rain
10:48 PM 57.2 °F 57.2 °F 100% 29.94 in 2.5 mi Calm Calm - 0.09 in Rain Rain
10:53 PM 57.9 °F 57.0 °F 97% 29.94 in 2.0 mi Calm Calm - 0.11 in Rain Light Rain
10:59 PM 57.2 °F 57.2 °F 100% 29.96 in 1.8 mi Calm Calm - 0.04 in Rain Heavy Rain
11:07 PM 57.2 °F 57.2 °F 100% 29.96 in 2.0 mi Calm Calm - 0.08 in Rain Rain
11:17 PM 57.2 °F 57.2 °F 100% 29.96 in 2.5 mi Calm Calm - 0.11 in Rain Rain
11:21 PM 57.2 °F 57.2 °F 100% 29.96 in 3.0 mi SSE 3.5 mph - 0.12 in Rain Rain
11:53 PM 57.9 °F 57.0 °F 97% 29.96 in 6.0 mi South 6.9 mph - 0.16 in Rain Light Rain